FW2187 Weather Reports


time (UTC)temp
F
wind
direction
speed
knots
gust
knots
rain 1hr
in
rain 24hr
in
rain mn
in
humidity
%
barometer
mb
20260506202016 58 174 1.7 6.1 0.00 0.11 0.11 95 1008.5
20260506201015 58 179 1.7 4.3 0.00 0.11 0.11 95 1008.6
20260506200115 58 167 1.7 7.8 0.00 0.11 0.11 95 1008.7
20260506195015 57 170 2.6 5.2 0.01 0.11 0.11 95 1008.9
20260506194015 57 216 1.7 4.3 0.02 0.11 0.11 95 1009.0
20260506193115 57 185 2.6 8.7 0.03 0.11 0.11 94 1009.0
20260506192015 57 189 1.7 5.2 0.03 0.11 0.11 94 1009.1
20260506191015 57 190 2.6 6.1 0.05 0.11 0.11 94 1009.2
20260506190015 57 180 1.7 6.1 0.06 0.11 0.11 93 1009.3
20260506185015 57 180 2.6 9.6 0.07 0.10 0.10 93 1009.4
20260506184015 58 177 2.6 6.1 0.08 0.09 0.09 92 1009.5
20260506183015 58 173 3.5 7.8 0.08 0.08 0.08 91 1009.3
20260506182015 58 178 2.6 5.2 0.08 0.08 0.08 91 1009.5
20260506181115 59 166 3.5 7.8 0.06 0.06 0.06 90 1009.6
20260506180015 60 178 1.7 7.0 0.05 0.05 0.05 88 1009.9
20260506175015 60 167 1.7 6.1 0.03 0.03 0.03 86 1010.2
20260506174015 61 164 0.9 3.5 0.01 0.01 0.01 85 1010.4
20260506173015 62 154 1.7 3.5 0.00 0.00 0.00 83 1010.5
20260506172015 62 181 2.6 7.8 0.00 0.00 0.00 81 1010.6
20260506171016 63 179 2.6 6.1 0.00 0.00 0.00 79 1010.8
20260506170014 64 185 2.6 12.2 0.00 0.00 0.00 77 1010.9
20260506165015 65 194 2.6 13.0 0.00 0.00 0.00 76 1010.8
20260506164015 65 199 2.6 7.8 0.00 0.00 0.00 76 1010.7
20260506163015 65 195 2.6 7.8 0.00 0.00 0.00 75 1010.7
20260506162015 66 201 3.5 8.7 0.00 0.00 0.00 73 1010.9
20260506161017 66 190 3.5 8.7 0.00 0.00 0.00 73 1011.1
20260506160015 66 189 3.5 9.6 0.00 0.00 0.00 72 1011.2
20260506155017 67 190 3.5 7.8 0.00 0.00 0.00 71 1011.2
20260506154018 67 199 3.5 9.6 0.00 0.00 0.00 71 1011.1
20260506153117 68 193 2.6 7.0 0.00 0.00 0.00 70 1011.1
20260506152218 68 196 2.6 6.1 0.00 0.00 0.00 71 1011.2
20260506151018 68 190 4.3 13.0 0.00 0.00 0.00 71 1011.3
20260506150017 68 194 3.5 9.6 0.00 0.00 0.00 71 1011.3
20260506145016 68 188 2.6 6.1 0.00 0.00 0.00 71 1011.4
20260506144016 68 198 2.6 13.9 0.00 0.00 0.00 71 1011.4
20260506143016 67 182 4.3 10.4 0.00 0.00 0.00 72 1011.3
20260506142017 66 198 3.5 8.7 0.00 0.00 0.00 74 1011.4
20260506141016 65 196 2.6 6.1 0.00 0.00 0.00 75 1011.5
20260506140116 65 193 3.5 10.4 0.00 0.00 0.00 76 1011.3
20260506135017 65 181 2.6 7.8 0.00 0.00 0.00 76 1011.2
20260506134117 64 208 2.6 6.1 0.00 0.00 0.00 78 1011.2
20260506133016 64 192 3.5 7.0 0.00 0.00 0.00 79 1011.2
20260506132016 63 188 3.5 7.8 0.00 0.00 0.00 80 1011.1
20260506131016 63 191 2.6 5.2 0.00 0.00 0.00 81 1011.4
20260506130016 62 179 2.6 7.8 0.00 0.00 0.00 83 1011.6
20260506125016 61 192 2.6 5.2 0.00 0.00 0.00 85 1011.8
20260506124016 60 194 3.5 7.8 0.00 0.00 0.00 86 1011.8
20260506123017 60 192 2.6 7.0 0.00 0.00 0.00 88 1011.8
20260506122016 59 198 2.6 9.6 0.00 0.00 0.00 88 1011.7
20260506121016 59 188 2.6 7.0 0.00 0.00 0.00 88 1011.8
20260506120017 58 177 2.6 7.0 0.00 0.00 0.00 89 1011.8
20260506115018 58 196 2.6 5.2 0.00 0.00 0.00 89 1011.7
20260506114016 58 187 2.6 6.1 0.00 0.00 0.00 90 1011.6
20260506113016 58 188 3.5 7.8 0.00 0.00 0.00 90 1011.8
20260506112017 57 183 2.6 7.0 0.00 0.00 0.00 91 1011.9
20260506111016 57 191 2.6 5.2 0.00 0.00 0.00 91 1012.1
20260506110016 57 187 2.6 5.2 0.00 0.00 0.00 91 1011.9
20260506105016 56 199 2.6 4.3 0.00 0.00 0.00 92 1011.9
20260506104116 56 190 2.6 7.0 0.00 0.00 0.00 92 1011.9
20260506103016 56 198 2.6 3.5 0.00 0.00 0.00 91 1011.8
20260506102016 56 188 2.6 5.2 0.00 0.00 0.00 91 1011.8
20260506101016 56 187 1.7 4.3 0.00 0.00 0.00 91 1011.8
20260506100016 56 199 2.6 4.3 0.00 0.00 0.00 90 1011.8
20260506095017 56 189 2.6 6.1 0.00 0.00 0.00 90 1011.8
20260506094016 56 204 2.6 5.2 0.00 0.00 0.00 90 1011.8
20260506093016 56 173 2.6 6.1 0.00 0.00 0.00 90 1011.9
20260506092017 56 188 2.6 4.3 0.00 0.00 0.00 90 1012.0
20260506091016 56 190 2.6 5.2 0.00 0.00 0.00 89 1011.9
20260506090016 56 183 2.6 5.2 0.00 0.00 0.00 89 1011.9
20260506085016 56 185 2.6 5.2 0.00 0.00 0.00 89 1012.1
20260506084016 57 197 2.6 6.1 0.00 0.00 0.00 89 1012.1
20260506083016 57 172 2.6 7.0 0.00 0.00 0.00 88 1012.0
20260506082417 57 192 2.6 4.3 0.00 0.00 0.00 88 1012.0
20260506081016 57 174 2.6 4.3 0.00 0.00 0.00 88 1012.1
20260506073016 57 183 2.6 5.2 0.00 0.00 0.00 86 1012.3
20260506072016 57 191 2.6 7.8 0.00 0.00 0.00 86 1012.4
20260506071016 58 187 2.6 6.1 0.00 0.00 0.00 85 1012.3
20260506070117 58 194 2.6 6.1 0.00 0.00 0.00 85 1012.2
20260506062016 58 203 2.6 6.1 0.00 0.00 0.00 84 1012.2
20260506061116 59 187 2.6 7.8 0.00 0.00 0.00 83 1012.3
20260506051016 60 194 3.5 6.1 0.00 0.00 0.00 80 1012.7
20260506045017 61 193 3.5 7.0 0.00 0.00 0.00 79 1012.9
20260506044016 61 198 3.5 7.0 0.00 0.00 0.00 79 1012.8
20260506043016 61 196 3.5 8.7 0.00 0.00 0.00 79 1012.9
20260506042016 61 197 2.6 7.0 0.00 0.00 0.00 78 1012.8
20260506041015 61 196 3.5 9.6 0.00 0.00 0.00 77 1012.8
20260506040016 61 196 3.5 6.1 0.00 0.00 0.00 76 1012.9
20260506035015 62 190 2.6 7.0 0.00 0.00 0.00 75 1013.0
20260506034016 62 197 2.6 6.1 0.00 0.00 0.00 74 1013.0
20260506033015 62 191 2.6 6.1 0.00 0.00 0.00 73 1012.9
20260506032015 62 186 3.5 13.0 0.00 0.00 0.00 73 1012.9
20260506031015 62 194 3.5 7.8 0.00 0.00 0.00 73 1012.7
20260506030016 62 197 3.5 7.8 0.00 0.00 0.00 73 1012.7
20260506025016 62 184 3.5 9.6 0.00 0.00 0.00 73 1012.6
20260506024015 62 179 3.5 9.6 0.00 0.00 0.00 73 1012.6
20260506023015 62 191 3.5 7.0 0.00 0.00 0.00 73 1012.5
20260506022015 62 193 3.5 7.0 0.00 0.00 0.00 72 1012.6
20260506021015 62 194 3.5 6.1 0.00 0.00 0.00 72 1012.5
20260506020017 62 186 3.5 8.7 0.00 0.00 0.00 72 1012.4
20260506015015 62 191 3.5 7.0 0.00 0.00 0.00 71 1012.4
20260506014115 62 186 2.6 7.0 0.00 0.00 0.00 71 1012.3
20260506013015 62 200 3.5 7.8 0.00 0.00 0.00 71 1012.1
20260506012016 62 201 3.5 7.0 0.00 0.00 0.00 70 1012.0
20260506011015 62 200 3.5 7.8 0.00 0.00 0.00 69 1011.9
20260506010015 62 193 1.7 6.1 0.00 0.00 0.00 69 1011.8
20260506005016 62 188 2.6 8.7 0.00 0.00 0.00 69 1011.6
20260506004015 63 192 2.6 5.2 0.00 0.00 0.00 69 1011.4
20260506003017 63 189 2.6 7.8 0.00 0.00 0.00 68 1011.2
20260506002116 63 180 2.6 7.8 0.00 0.00 0.00 68 1011.0
20260506001116 64 190 2.6 6.1 0.00 0.00 0.00 68 1010.8
20260506000016 64 192 3.5 5.2 0.00 0.00 0.00 67 1010.5
20260505235015 64 180 3.5 10.4 0.00 0.00 0.00 66 1010.4
20260505234015 65 184 3.5 7.0 0.00 0.00 0.00 66 1010.5
20260505233016 66 177 2.6 7.0 0.00 0.00 0.00 65 1010.2
20260505232016 66 189 2.6 8.7 0.00 0.00 0.00 64 1010.1
20260505231015 67 186 4.3 8.7 0.00 0.00 0.00 63 1010.0
20260505230015 67 186 3.5 7.8 0.00 0.00 0.00 62 1009.9
20260505225015 67 183 3.5 7.8 0.00 0.00 0.00 62 1009.7
20260505224015 68 194 4.3 11.3 0.00 0.00 0.00 61 1009.6
20260505223015 69 184 4.3 9.6 0.00 0.00 0.00 59 1010.0
20260505222015 70 182 3.5 9.6 0.00 0.00 0.00 58 1010.0
20260505221015 70 178 3.5 11.3 0.00 0.00 0.00 58 1010.0
20260505220115 70 191 2.6 7.0 0.00 0.00 0.00 57 1009.8
20260505215015 71 188 4.3 10.4 0.00 0.00 0.00 57 1009.8
20260505214015 71 183 4.3 10.4 0.00 0.00 0.00 56 1009.6
20260505213115 72 189 4.3 11.3 0.00 0.00 0.00 56 1009.6
20260505212016 72 180 3.5 9.6 0.00 0.00 0.00 55 1009.7
20260505211015 72 188 3.5 8.7 0.00 0.00 0.00 56 1009.7
20260505210115 73 186 3.5 10.4 0.00 0.00 0.00 55 1009.7
20260505205015 73 176 3.5 10.4 0.00 0.00 0.00 55 1009.7
20260505204017 73 189 4.3 6.1 0.00 0.00 0.00 54 1009.7
20260505203906 73 203 3.5 6.1 0.00 0.00 0.00 54 1009.7
20260505202517 74 184 3.5 9.6 0.00 0.00 0.00 53 1009.8